Time,TemperatureF,DewpointF,PressureIn,WindDirection,WindDirectionDegrees,WindSpeedMPH,WindSpeedGustMPH,Humidity,HourlyPrecipIn,Conditions,Clouds,dailyrainin,SoftwareType,DateUTC
2013-05-30 00:03:00,74.0,-99.9,30.01,ENE,77,13.0,17.0,-999,-99.99,,,-99.99,,2013-05-30 04:03:00,
2013-05-30 00:13:00,74.0,-99.9,30.01,East,100,8.0,13.0,-999,-99.99,,,-99.99,,2013-05-30 04:13:00,
2013-05-30 00:23:00,74.0,-99.9,30.00,ESE,110,9.0,16.0,-999,-99.99,,,-99.99,,2013-05-30 04:23:00,
2013-05-30 00:33:00,73.0,-99.9,30.01,ESE,108,12.0,20.0,-999,-99.99,,,-99.99,,2013-05-30 04:33:00,
2013-05-30 00:42:00,73.0,-99.9,30.01,East,97,7.0,11.0,-999,-99.99,,,-99.99,,2013-05-30 04:42:00,
2013-05-30 00:53:00,73.0,-99.9,30.00,East,80,11.0,16.0,-999,-99.99,,,-99.99,,2013-05-30 04:53:00,
2013-05-30 01:02:00,73.0,-99.9,30.00,East,86,9.0,13.0,-999,-99.99,,,-99.99,,2013-05-30 05:02:00,
2013-05-30 01:12:00,73.0,-99.9,29.99,East,97,5.0,9.0,-999,-99.99,,,-99.99,,2013-05-30 05:12:00,
2013-05-30 01:22:00,73.0,-99.9,29.98,ESE,116,5.0,10.0,-999,-99.99,,,-99.99,,2013-05-30 05:22:00,
2013-05-30 01:32:00,73.0,-99.9,29.98,ESE,122,7.0,12.0,-999,-99.99,,,-99.99,,2013-05-30 05:32:00,
2013-05-30 01:43:00,73.0,-99.9,29.98,East,101,8.0,15.0,-999,-99.99,,,-99.99,,2013-05-30 05:43:00,
2013-05-30 01:52:00,73.0,-99.9,29.98,ESE,108,8.0,13.0,-999,-99.99,,,-99.99,,2013-05-30 05:52:00,
2013-05-30 02:01:00,74.0,-99.9,29.98,ESE,107,10.0,14.0,-999,-99.99,,,-99.99,,2013-05-30 06:01:00,
2013-05-30 02:12:00,75.0,-99.9,29.97,ESE,106,9.0,15.0,-999,-99.99,,,-99.99,,2013-05-30 06:12:00,
2013-05-30 02:22:00,75.0,-99.9,29.97,ESE,106,8.0,11.0,-999,-99.99,,,-99.99,,2013-05-30 06:22:00,
2013-05-30 02:32:00,76.0,-99.9,29.96,ESE,112,8.0,13.0,-999,-99.99,,,-99.99,,2013-05-30 06:32:00,
2013-05-30 02:42:00,76.0,-99.9,29.96,ESE,115,9.0,13.0,-999,-99.99,,,-99.99,,2013-05-30 06:42:00,
2013-05-30 02:52:00,75.0,-99.9,29.96,ESE,105,7.0,10.0,-999,-99.99,,,-99.99,,2013-05-30 06:52:00,
2013-05-30 03:02:00,76.0,-99.9,29.96,ESE,116,8.0,13.0,-999,-99.99,,,-99.99,,2013-05-30 07:02:00,
2013-05-30 03:12:00,76.0,-99.9,29.96,ESE,117,6.0,11.0,-999,-99.99,,,-99.99,,2013-05-30 07:12:00,
2013-05-30 03:22:00,76.0,-99.9,29.96,ESE,121,7.0,12.0,-999,-99.99,,,-99.99,,2013-05-30 07:22:00,
2013-05-30 03:32:00,76.0,-99.9,29.96,ESE,119,4.0,9.0,-999,-99.99,,,-99.99,,2013-05-30 07:32:00,
2013-05-30 03:42:00,76.0,-99.9,29.96,ESE,113,6.0,8.0,-999,-99.99,,,-99.99,,2013-05-30 07:42:00,
2013-05-30 03:52:00,75.0,-99.9,29.96,ESE,104,7.0,13.0,-999,-99.99,,,-99.99,,2013-05-30 07:52:00,
2013-05-30 04:02:00,74.0,-99.9,29.96,ESE,103,10.0,14.0,-999,-99.99,,,-99.99,,2013-05-30 08:02:00,
2013-05-30 04:11:00,73.0,-99.9,29.96,ESE,113,5.0,11.0,-999,-99.99,,,-99.99,,2013-05-30 08:11:00,
2013-05-30 04:22:00,73.0,-99.9,29.96,ESE,105,6.0,10.0,-999,-99.99,,,-99.99,,2013-05-30 08:22:00,
2013-05-30 04:32:00,73.0,-99.9,29.96,ESE,123,5.0,8.0,-999,-99.99,,,-99.99,,2013-05-30 08:32:00,
2013-05-30 04:42:00,73.0,-99.9,29.95,ESE,113,3.0,5.0,-999,-99.99,,,-99.99,,2013-05-30 08:42:00,
2013-05-30 04:53:00,73.0,-99.9,29.95,SE,129,3.0,4.0,-999,-99.99,,,-99.99,,2013-05-30 08:53:00,
2013-05-30 05:01:00,73.0,-99.9,29.95,SE,129,4.0,4.0,-999,-99.99,,,-99.99,,2013-05-30 09:01:00,
2013-05-30 05:11:00,73.0,-99.9,29.95,East,95,3.0,5.0,-999,-99.99,,,-99.99,,2013-05-30 09:11:00,
2013-05-30 05:22:00,74.0,-99.9,29.95,East,81,3.0,4.0,-999,-99.99,,,-99.99,,2013-05-30 09:22:00,
2013-05-30 05:33:00,74.0,-99.9,29.95,East,80,4.0,5.0,-999,-99.99,,,-99.99,,2013-05-30 09:33:00,
2013-05-30 05:43:00,74.0,-99.9,29.95,ENE,74,2.0,3.0,-999,-99.99,,,-99.99,,2013-05-30 09:43:00,
2013-05-30 05:53:00,74.0,-99.9,29.95,East,81,2.0,3.0,-999,-99.99,,,-99.99,,2013-05-30 09:53:00,
2013-05-30 06:03:00,74.0,-99.9,29.95,ENE,74,2.0,3.0,-999,-99.99,,,-99.99,,2013-05-30 10:03:00,
2013-05-30 06:13:00,74.0,-99.9,29.96,ENE,69,3.0,4.0,-999,-99.99,,,-99.99,,2013-05-30 10:13:00,
2013-05-30 06:23:00,74.0,-99.9,29.96,East,83,4.0,5.0,-999,-99.99,,,-99.99,,2013-05-30 10:23:00,
2013-05-30 06:33:00,74.0,-99.9,29.96,East,79,5.0,6.0,-999,-99.99,,,-99.99,,2013-05-30 10:33:00,
2013-05-30 06:42:00,75.0,-99.9,29.96,ENE,77,4.0,5.0,-999,-99.99,,,-99.99,,2013-05-30 10:42:00,
2013-05-30 06:52:00,74.0,-99.9,29.96,East,86,4.0,5.0,-999,-99.99,,,-99.99,,2013-05-30 10:52:00,
2013-05-30 07:03:00,74.0,-99.9,29.96,East,84,2.0,4.0,-999,-99.99,,,-99.99,,2013-05-30 11:03:00,
2013-05-30 07:12:00,74.0,-99.9,29.97,East,83,2.0,2.0,-999,-99.99,,,-99.99,,2013-05-30 11:12:00,
2013-05-30 07:22:00,74.0,-99.9,29.97,ENE,77,2.0,3.0,-999,-99.99,,,-99.99,,2013-05-30 11:22:00,
2013-05-30 07:32:00,75.0,-99.9,29.97,ENE,67,2.0,3.0,-999,-99.99,,,-99.99,,2013-05-30 11:32:00,
2013-05-30 07:42:00,76.0,-99.9,29.97,ENE,66,5.0,6.0,-999,-99.99,,,-99.99,,2013-05-30 11:42:00,
2013-05-30 07:52:00,76.0,-99.9,29.98,ENE,74,3.0,5.0,-999,-99.99,,,-99.99,,2013-05-30 11:52:00,
2013-05-30 08:02:00,76.0,-99.9,29.98,East,85,4.0,5.0,-999,-99.99,,,-99.99,,2013-05-30 12:02:00,
2013-05-30 08:11:00,76.0,-99.9,29.98,East,85,4.0,5.0,-999,-99.99,,,-99.99,,2013-05-30 12:11:00,
2013-05-30 08:32:00,76.0,-99.9,29.99,East,84,5.0,9.0,-999,-99.99,,,-99.99,,2013-05-30 12:32:00,
2013-05-30 08:42:00,76.0,-99.9,29.99,ESE,106,4.0,7.0,-999,-99.99,,,-99.99,,2013-05-30 12:42:00,
2013-05-30 08:52:00,76.0,-99.9,30.00,ENE,77,3.0,6.0,-999,-99.99,,,-99.99,,2013-05-30 12:52:00,
2013-05-30 09:01:00,76.0,-99.9,30.00,SSE,161,2.0,3.0,-999,-99.99,,,-99.99,,2013-05-30 13:01:00,
2013-05-30 09:11:00,76.0,-99.9,30.00,East,79,3.0,5.0,-999,-99.99,,,-99.99,,2013-05-30 13:11:00,
2013-05-30 09:22:00,77.0,-99.9,30.00,East,99,5.0,8.0,-999,-99.99,,,-99.99,,2013-05-30 13:22:00,
2013-05-30 09:32:00,77.0,-99.9,30.00,ESE,104,5.0,9.0,-999,-99.99,,,-99.99,,2013-05-30 13:32:00,
2013-05-30 09:42:00,77.0,-99.9,30.00,East,79,8.0,10.0,-999,-99.99,,,-99.99,,2013-05-30 13:42:00,
2013-05-30 09:52:00,77.0,-99.9,30.00,ENE,78,4.0,10.0,-999,-99.99,,,-99.99,,2013-05-30 13:52:00,
2013-05-30 10:02:00,77.0,-99.9,30.00,East,85,4.0,9.0,-999,-99.99,,,-99.99,,2013-05-30 14:02:00,
2013-05-30 10:12:00,78.0,-99.9,30.00,ESE,119,3.0,5.0,-999,-99.99,,,-99.99,,2013-05-30 14:12:00,
2013-05-30 10:22:00,78.0,-99.9,30.00,ESE,119,3.0,5.0,-999,-99.99,,,-99.99,,2013-05-30 14:22:00,
2013-05-30 10:32:00,78.0,-99.9,30.00,ESE,119,3.0,5.0,-999,-99.99,,,-99.99,,2013-05-30 14:32:00,
2013-05-30 10:52:00,79.0,-99.9,30.01,East,95,4.0,6.0,-999,-99.99,,,-99.99,,2013-05-30 14:52:00,
2013-05-30 11:01:00,79.0,-99.9,30.00,East,97,3.0,5.0,-999,-99.99,,,-99.99,,2013-05-30 15:01:00,
2013-05-30 11:11:00,78.0,-99.9,30.01,SE,143,4.0,7.0,-999,-99.99,,,-99.99,,2013-05-30 15:11:00,
2013-05-30 11:22:00,78.0,-99.9,30.01,SE,124,4.0,6.0,-999,-99.99,,,-99.99,,2013-05-30 15:22:00,
2013-05-30 11:33:00,78.0,-99.9,30.01,SE,135,4.0,6.0,-999,-99.99,,,-99.99,,2013-05-30 15:33:00,
2013-05-30 11:43:00,78.0,-99.9,30.02,SSE,162,4.0,6.0,-999,-99.99,,,-99.99,,2013-05-30 15:43:00,
2013-05-30 11:53:00,77.0,-99.9,30.02,ESE,114,5.0,9.0,-999,-99.99,,,-99.99,,2013-05-30 15:53:00,
2013-05-30 12:03:00,76.0,-99.9,30.02,East,94,3.0,10.0,-999,-99.99,,,-99.99,,2013-05-30 16:03:00,
2013-05-30 12:13:00,76.0,-99.9,30.02,East,85,3.0,6.0,-999,-99.99,,,-99.99,,2013-05-30 16:13:00,
2013-05-30 12:23:00,76.0,-99.9,30.02,South,179,1.0,4.0,-999,-99.99,,,-99.99,,2013-05-30 16:23:00,
2013-05-30 12:33:00,77.0,-99.9,30.03,SSW,193,0.0,2.0,-999,-99.99,,,-99.99,,2013-05-30 16:33:00,
2013-05-30 12:42:00,77.0,-99.9,30.02,SSE,158,2.0,3.0,-999,-99.99,,,-99.99,,2013-05-30 16:42:00,
2013-05-30 12:53:00,76.0,-99.9,30.03,South,170,2.0,3.0,-999,-99.99,,,-99.99,,2013-05-30 16:53:00,
2013-05-30 13:03:00,76.0,-99.9,30.02,ENE,59,2.0,3.0,-999,-99.99,,,-99.99,,2013-05-30 17:03:00,
2013-05-30 13:12:00,76.0,-99.9,30.01,NE,38,6.0,7.0,-999,-99.99,,,-99.99,,2013-05-30 17:12:00,
2013-05-30 13:22:00,77.0,-99.9,30.01,ENE,73,7.0,9.0,-999,-99.99,,,-99.99,,2013-05-30 17:22:00,
2013-05-30 13:32:00,76.0,-99.9,30.01,ENE,73,8.0,9.0,-999,-99.99,,,-99.99,,2013-05-30 17:32:00,
2013-05-30 13:42:00,77.0,-99.9,30.00,East,98,6.0,9.0,-999,-99.99,,,-99.99,,2013-05-30 17:42:00,
2013-05-30 13:52:00,77.0,-99.9,30.00,ESE,105,6.0,10.0,-999,-99.99,,,-99.99,,2013-05-30 17:52:00,
2013-05-30 14:02:00,78.0,-99.9,29.99,ESE,110,2.0,6.0,-999,-99.99,,,-99.99,,2013-05-30 18:02:00,
2013-05-30 14:11:00,77.0,-99.9,29.99,ESE,115,3.0,7.0,-999,-99.99,,,-99.99,,2013-05-30 18:11:00,
2013-05-30 14:22:00,78.0,-99.9,29.98,ESE,123,5.0,8.0,-999,-99.99,,,-99.99,,2013-05-30 18:22:00,
2013-05-30 14:32:00,78.0,-99.9,29.99,ESE,117,5.0,8.0,-999,-99.99,,,-99.99,,2013-05-30 18:32:00,
2013-05-30 14:43:00,78.0,-99.9,29.98,East,99,6.0,9.0,-999,-99.99,,,-99.99,,2013-05-30 18:43:00,
2013-05-30 14:52:00,78.0,-99.9,29.98,East,95,8.0,11.0,-999,-99.99,,,-99.99,,2013-05-30 18:52:00,
2013-05-30 15:02:00,78.0,-99.9,29.98,East,95,8.0,11.0,-999,-99.99,,,-99.99,,2013-05-30 19:02:00,
2013-05-30 15:12:00,78.0,-99.9,29.98,East,95,8.0,11.0,-999,-99.99,,,-99.99,,2013-05-30 19:12:00,
2013-05-30 15:32:00,78.0,-99.9,29.98,ENE,58,9.0,11.0,-999,-99.99,,,-99.99,,2013-05-30 19:32:00,
2013-05-30 15:42:00,79.0,-99.9,29.98,NE,56,7.0,10.0,-999,-99.99,,,-99.99,,2013-05-30 19:42:00,
2013-05-30 15:53:00,79.0,-99.9,29.97,ENE,75,9.0,11.0,-999,-99.99,,,-99.99,,2013-05-30 19:53:00,
2013-05-30 16:02:00,80.0,-99.9,29.97,East,89,7.0,11.0,-999,-99.99,,,-99.99,,2013-05-30 20:02:00,
2013-05-30 16:11:00,80.0,-99.9,29.97,ESE,112,6.0,12.0,-999,-99.99,,,-99.99,,2013-05-30 20:11:00,
2013-05-30 16:23:00,80.0,-99.9,29.96,East,93,7.0,12.0,-999,-99.99,,,-99.99,,2013-05-30 20:23:00,
2013-05-30 16:33:00,80.0,-99.9,29.96,East,80,8.0,11.0,-999,-99.99,,,-99.99,,2013-05-30 20:33:00,
2013-05-30 16:42:00,79.0,-99.9,29.96,East,87,11.0,15.0,-999,-99.99,,,-99.99,,2013-05-30 20:42:00,
2013-05-30 16:52:00,79.0,-99.9,29.96,East,95,9.0,13.0,-999,-99.99,,,-99.99,,2013-05-30 20:52:00,
2013-05-30 17:01:00,79.0,-99.9,29.96,East,97,6.0,10.0,-999,-99.99,,,-99.99,,2013-05-30 21:01:00,
2013-05-30 17:11:00,79.0,-99.9,29.95,East,99,7.0,13.0,-999,-99.99,,,-99.99,,2013-05-30 21:11:00,
2013-05-30 17:22:00,79.0,-99.9,29.96,ESE,109,5.0,12.0,-999,-99.99,,,-99.99,,2013-05-30 21:22:00,
2013-05-30 17:33:00,79.0,-99.9,29.96,ESE,109,7.0,10.0,-999,-99.99,,,-99.99,,2013-05-30 21:33:00,
2013-05-30 17:43:00,79.0,-99.9,29.95,SE,128,6.0,10.0,-999,-99.99,,,-99.99,,2013-05-30 21:43:00,
2013-05-30 17:53:00,79.0,-99.9,29.95,ESE,106,6.0,12.0,-999,-99.99,,,-99.99,,2013-05-30 21:53:00,
2013-05-30 18:03:00,78.0,-99.9,29.95,ESE,112,7.0,10.0,-999,-99.99,,,-99.99,,2013-05-30 22:03:00,
2013-05-30 18:12:00,79.0,-99.9,29.95,ESE,113,6.0,9.0,-999,-99.99,,,-99.99,,2013-05-30 22:12:00,
2013-05-30 18:23:00,79.0,-99.9,29.95,ESE,121,6.0,8.0,-999,-99.99,,,-99.99,,2013-05-30 22:23:00,
2013-05-30 18:33:00,79.0,-99.9,29.95,ESE,123,6.0,9.0,-999,-99.99,,,-99.99,,2013-05-30 22:33:00,
2013-05-30 18:42:00,79.0,-99.9,29.95,ESE,104,3.0,7.0,-999,-99.99,,,-99.99,,2013-05-30 22:42:00,
2013-05-30 18:52:00,79.0,-99.9,29.95,ESE,105,5.0,7.0,-999,-99.99,,,-99.99,,2013-05-30 22:52:00,
2013-05-30 19:02:00,79.0,-99.9,29.95,ESE,111,4.0,8.0,-999,-99.99,,,-99.99,,2013-05-30 23:02:00,
2013-05-30 19:12:00,79.0,-99.9,29.95,ESE,112,5.0,10.0,-999,-99.99,,,-99.99,,2013-05-30 23:12:00,
2013-05-30 19:22:00,79.0,-99.9,29.96,ESE,114,4.0,8.0,-999,-99.99,,,-99.99,,2013-05-30 23:22:00,
2013-05-30 19:32:00,79.0,-99.9,29.96,ESE,115,4.0,8.0,-999,-99.99,,,-99.99,,2013-05-30 23:32:00,
2013-05-30 19:42:00,78.0,-99.9,29.96,ESE,111,5.0,11.0,-999,-99.99,,,-99.99,,2013-05-30 23:42:00,
2013-05-30 19:52:00,78.0,-99.9,29.96,ESE,102,5.0,8.0,-999,-99.99,,,-99.99,,2013-05-30 23:52:00,
2013-05-30 20:01:00,78.0,-99.9,29.96,East,92,5.0,9.0,-999,-99.99,,,-99.99,,2013-05-31 00:01:00,
2013-05-30 20:11:00,78.0,-99.9,29.97,ESE,104,5.0,11.0,-999,-99.99,,,-99.99,,2013-05-31 00:11:00,
2013-05-30 20:22:00,78.0,-99.9,29.97,East,100,6.0,9.0,-999,-99.99,,,-99.99,,2013-05-31 00:22:00,
2013-05-30 20:32:00,78.0,-99.9,29.97,East,101,6.0,11.0,-999,-99.99,,,-99.99,,2013-05-31 00:32:00,
2013-05-30 20:42:00,78.0,-99.9,29.98,East,101,7.0,11.0,-999,-99.99,,,-99.99,,2013-05-31 00:42:00,
2013-05-30 20:52:00,78.0,-99.9,29.98,East,98,7.0,12.0,-999,-99.99,,,-99.99,,2013-05-31 00:52:00,
2013-05-30 21:01:00,78.0,-99.9,29.98,East,90,9.0,16.0,-999,-99.99,,,-99.99,,2013-05-31 01:01:00,
2013-05-30 21:12:00,78.0,-99.9,29.98,East,91,7.0,11.0,-999,-99.99,,,-99.99,,2013-05-31 01:12:00,
2013-05-30 21:22:00,78.0,-99.9,29.99,East,86,12.0,16.0,-999,-99.99,,,-99.99,,2013-05-31 01:22:00,
2013-05-30 21:32:00,78.0,-99.9,29.99,East,85,9.0,15.0,-999,-99.99,,,-99.99,,2013-05-31 01:32:00,
2013-05-30 21:42:00,77.0,-99.9,30.00,East,88,9.0,16.0,-999,-99.99,,,-99.99,,2013-05-31 01:42:00,
2013-05-30 21:52:00,77.0,-99.9,30.00,East,92,6.0,12.0,-999,-99.99,,,-99.99,,2013-05-31 01:52:00,
2013-05-30 22:02:00,77.0,-99.9,30.00,East,91,11.0,15.0,-999,-99.99,,,-99.99,,2013-05-31 02:02:00,
2013-05-30 22:11:00,77.0,-99.9,29.99,East,97,9.0,13.0,-999,-99.99,,,-99.99,,2013-05-31 02:11:00,
2013-05-30 22:22:00,77.0,-99.9,29.99,East,92,10.0,14.0,-999,-99.99,,,-99.99,,2013-05-31 02:22:00,
2013-05-30 22:32:00,77.0,-99.9,30.00,East,87,10.0,17.0,-999,-99.99,,,-99.99,,2013-05-31 02:32:00,
2013-05-30 22:42:00,77.0,-99.9,30.00,East,88,9.0,13.0,-999,-99.99,,,-99.99,,2013-05-31 02:42:00,
2013-05-30 22:52:00,77.0,-99.9,30.00,East,94,9.0,14.0,-999,-99.99,,,-99.99,,2013-05-31 02:52:00,
2013-05-30 23:01:00,77.0,-99.9,30.00,East,96,9.0,13.0,-999,-99.99,,,-99.99,,2013-05-31 03:01:00,
2013-05-30 23:11:00,77.0,-99.9,30.01,ESE,117,10.0,17.0,-999,-99.99,,,-99.99,,2013-05-31 03:11:00,
2013-05-30 23:22:00,77.0,-99.9,30.01,SE,124,7.0,13.0,-999,-99.99,,,-99.99,,2013-05-31 03:22:00,
2013-05-30 23:33:00,77.0,-99.9,30.01,ESE,122,9.0,16.0,-999,-99.99,,,-99.99,,2013-05-31 03:33:00,
2013-05-30 23:43:00,76.0,-99.9,30.01,ESE,107,12.0,18.0,-999,-99.99,,,-99.99,,2013-05-31 03:43:00,
2013-05-30 23:53:00,76.0,-99.9,30.01,ESE,107,9.0,15.0,-999,-99.99,,,-99.99,,2013-05-31 03:53:00,